FW9042 Weather Reports


time (UTC)temp
F
wind
direction
speed
knots
gust
knots
rain 1hr
in
rain 24hr
in
rain mn
in
humidity
%
barometer
mb
20260505140416 52 203 3.5 4.3 0.00 0.00 0.00 58 1009.5
20260505124829 54 146 4.3 6.1 0.00 0.00 0.00 58 1008.4
20260505124326 54 215 2.6 5.2 0.00 0.00 0.00 60 1008.4
20260505123822 54 162 6.1 8.7 0.00 0.00 0.00 60 1008.2
20260505123319 54 204 7.0 7.8 0.00 0.00 0.00 61 1008.0
20260505122815 53 150 6.1 8.7 0.00 0.00 0.00 61 1008.2
20260505122312 53 201 3.5 6.1 0.00 0.00 0.00 62 1007.9
20260505121809 53 196 4.3 6.1 0.00 0.00 0.00 62 1008.0
20260505121306 53 226 6.1 8.7 0.00 0.00 0.00 62 1007.9
20260505120802 53 142 3.5 5.2 0.00 0.00 0.00 62 1008.4
20260505120258 53 161 4.3 6.1 0.00 0.00 0.00 63 1008.0
20260505115757 53 155 3.5 4.3 0.00 0.00 0.00 64 1008.2
20260505115255 53 165 6.1 7.0 0.00 0.00 0.00 65 1008.0
20260505114752 53 224 4.3 6.1 0.00 0.00 0.00 66 1008.2
20260505114248 54 198 6.1 7.8 0.00 0.00 0.00 67 1008.4
20260505113745 54 177 2.6 5.2 0.00 0.00 0.00 67 1008.3
20260505113241 54 168 2.6 2.6 0.00 0.00 0.00 64 1008.4
20260505112737 54 225 1.7 1.7 0.00 0.00 0.00 63 1008.4
20260505112235 54 225 4.3 5.2 0.00 0.00 0.00 62 1008.4
20260505111735 54 163 2.6 2.6 0.00 0.00 0.00 63 1008.3
20260505111231 54 243 1.7 1.7 0.00 0.00 0.00 62 1008.4
20260505110727 54 254 0.9 0.9 0.00 0.00 0.00 61 1008.4
20260505110225 54 228 0.0 0.9 0.00 0.00 0.00 61 1008.6
20260505102200 55 202 2.6 4.3 0.00 0.00 0.00 59 1008.2
20260505101659 55 221 0.9 1.7 0.00 0.00 0.00 59 1008.3
20260505101154 55 224 0.9 1.7 0.00 0.00 0.00 59 1008.2
20260505100651 55 225 3.5 4.3 0.00 0.00 0.00 59 1008.2
20260505100148 55 243 0.9 0.9 0.00 0.00 0.00 59 1008.4
20260505095644 55 241 1.7 1.7 0.00 0.00 0.00 59 1008.0
20260505095142 55 237 0.9 0.9 0.00 0.00 0.00 59 1008.3
20260505094637 55 220 2.6 2.6 0.00 0.00 0.00 59 1008.5
20260505094134 55 244 0.9 0.9 0.00 0.00 0.00 59 1008.3
20260505093630 55 229 1.7 2.6 0.00 0.00 0.00 59 1008.3
20260505093128 55 212 3.5 4.3 0.00 0.00 0.00 58 1007.9
20260505092624 55 175 1.7 2.6 0.00 0.00 0.00 59 1008.3
20260505092124 55 155 2.6 5.2 0.00 0.00 0.00 60 1008.4
20260505091619 55 162 5.2 6.1 0.00 0.00 0.00 60 1008.3
20260505091118 55 194 1.7 2.6 0.00 0.00 0.00 61 1008.2
20260505090615 55 202 1.7 1.7 0.00 0.00 0.00 61 1008.2
20260505090114 55 216 2.6 4.3 0.00 0.00 0.00 61 1008.2
20260505085610 55 147 4.3 5.2 0.00 0.00 0.00 61 1008.5
20260505085109 55 166 2.6 5.2 0.00 0.00 0.00 61 1008.4
20260505084606 55 157 3.5 5.2 0.00 0.00 0.00 62 1008.3
20260505084104 55 164 1.7 2.6 0.00 0.00 0.00 61 1008.4
20260505083602 55 174 0.9 1.7 0.00 0.00 0.00 61 1008.3
20260505083058 55 151 3.5 4.3 0.00 0.00 0.00 61 1008.5
20260505082554 55 156 2.6 2.6 0.00 0.00 0.00 61 1008.9
20260505082051 55 164 4.3 5.2 0.00 0.00 0.00 61 1008.5
20260505081547 55 165 1.7 1.7 0.00 0.00 0.00 61 1008.7
20260505081044 55 171 1.7 5.2 0.00 0.00 0.00 61 1008.9
20260505080540 55 163 2.6 5.2 0.00 0.00 0.00 62 1008.6
20260505080037 55 163 2.6 4.3 0.00 0.00 0.00 62 1008.6
20260505075533 55 201 6.1 7.8 0.00 0.00 0.00 61 1008.7
20260505075030 55 219 4.3 6.1 0.00 0.00 0.00 61 1008.6
20260505074527 55 181 3.5 5.2 0.00 0.00 0.00 61 1008.6
20260505074024 55 177 3.5 11.3 0.00 0.00 0.00 60 1008.9
20260505073522 55 157 3.5 6.1 0.00 0.00 0.00 59 1008.6
20260505073020 55 196 6.1 7.8 0.00 0.00 0.00 59 1008.7
20260505072515 55 171 5.2 8.7 0.00 0.00 0.00 58 1008.6
20260505072012 55 138 3.5 5.2 0.00 0.00 0.00 58 1008.6
20260505071507 55 153 4.3 7.0 0.00 0.00 0.00 57 1008.5
20260505071006 55 132 7.0 7.8 0.00 0.00 0.00 57 1008.4
20260505070503 55 139 8.7 11.3 0.00 0.00 0.00 57 1008.5
20260505065958 55 148 8.7 11.3 0.00 0.00 0.00 57 1008.5
20260505065455 55 200 7.0 12.2 0.00 0.00 0.00 57 1008.5
20260505064951 55 191 4.3 6.1 0.00 0.00 0.00 56 1008.7
20260505064448 55 174 3.5 5.2 0.00 0.00 0.00 58 1009.0
20260505063947 55 140 5.2 8.7 0.00 0.00 0.00 58 1008.6
20260505063443 55 190 6.1 7.8 0.00 0.00 0.00 59 1008.4
20260505062939 55 149 5.2 6.1 0.00 0.00 0.00 59 1008.4
20260505062436 55 140 5.2 6.1 0.00 0.00 0.00 59 1008.6
20260505061933 55 191 2.6 2.6 0.00 0.00 0.00 60 1008.5
20260505061431 55 155 5.2 6.1 0.00 0.00 0.00 61 1008.6
20260505060929 55 192 7.8 9.6 0.00 0.00 0.00 61 1008.6
20260505060426 55 209 5.2 7.8 0.00 0.00 0.00 61 1008.6
20260505055922 55 147 8.7 11.3 0.00 0.00 0.00 61 1008.5
20260505055418 55 190 7.0 9.6 0.00 0.00 0.00 61 1008.9
20260505054915 55 197 3.5 5.2 0.00 0.00 0.00 60 1009.0
20260505054412 56 167 6.1 7.8 0.00 0.00 0.00 60 1008.5
20260505053910 56 207 7.0 9.6 0.00 0.00 0.00 59 1008.5
20260505053407 56 155 4.3 7.8 0.00 0.00 0.00 59 1008.3
20260505052904 56 140 6.1 9.6 0.00 0.00 0.00 60 1008.6
20260505052400 56 179 4.3 7.0 0.00 0.00 0.00 60 1008.6
20260505051858 56 159 8.7 13.0 0.00 0.00 0.00 61 1008.6
20260505051355 56 108 8.7 11.3 0.00 0.00 0.00 60 1008.3
20260505050853 56 164 7.8 9.6 0.00 0.00 0.00 60 1008.4
20260505050351 57 135 4.3 7.8 0.00 0.00 0.00 59 1008.3
20260505041319 61 156 6.1 7.8 0.00 0.00 0.00 44 1007.5
20260505040815 61 134 9.6 12.2 0.00 0.00 0.00 43 1007.5
20260505040313 61 148 5.2 8.7 0.00 0.00 0.00 43 1007.4
20260505035810 61 203 4.3 6.1 0.00 0.00 0.00 43 1007.2
20260505035305 61 209 5.2 6.1 0.00 0.00 0.00 43 1007.2
20260505034803 61 209 5.2 7.8 0.00 0.00 0.00 44 1007.2
20260505034259 61 201 4.3 6.1 0.00 0.00 0.00 44 1007.0
20260505033756 61 195 5.2 7.0 0.00 0.00 0.00 45 1007.1
20260505033254 61 212 6.1 7.8 0.00 0.00 0.00 47 1007.1
20260505032752 61 197 3.5 4.3 0.00 0.00 0.00 47 1006.7
20260505032247 61 210 3.5 5.2 0.00 0.00 0.00 47 1007.0
20260505031745 61 135 2.6 4.3 0.00 0.00 0.00 47 1007.1
20260505031241 62 179 3.5 5.2 0.00 0.00 0.00 46 1006.9
20260505030738 62 189 6.1 8.7 0.00 0.00 0.00 45 1007.0
20260505030234 62 219 4.3 5.2 0.00 0.00 0.00 44 1007.1
20260505025730 62 158 6.1 8.7 0.00 0.00 0.00 44 1006.9
20260505025228 62 208 7.0 8.7 0.00 0.00 0.00 44 1006.8
20260505024726 63 220 6.1 7.8 0.00 0.00 0.00 44 1006.8
20260505024223 63 214 5.2 6.1 0.00 0.00 0.00 44 1006.8
20260505023721 63 161 7.8 9.6 0.00 0.00 0.00 44 1006.5
20260505023218 63 207 4.3 7.0 0.00 0.00 0.00 44 1006.4
20260505022715 64 183 2.6 5.2 0.00 0.00 0.00 43 1006.4
20260505022212 64 153 9.6 13.0 0.00 0.00 0.00 41 1006.5
20260505021708 64 208 7.0 8.7 0.00 0.00 0.00 40 1006.2
20260505021206 64 163 7.8 8.7 0.00 0.00 0.00 40 1006.4
20260505020701 64 174 6.1 7.8 0.00 0.00 0.00 40 1006.2
20260505020157 64 167 4.3 7.0 0.00 0.00 0.00 42 1006.4
20260505015655 64 142 6.1 7.8 0.00 0.00 0.00 41 1006.2
20260505015151 64 183 7.0 12.2 0.00 0.00 0.00 40 1006.3
20260505014648 65 122 7.0 8.7 0.00 0.00 0.00 40 1006.3
20260505014145 65 163 9.6 13.9 0.00 0.00 0.00 40 1006.5
20260505013642 66 154 5.2 7.0 0.00 0.00 0.00 38 1006.2
20260505013139 68 170 2.6 2.6 0.00 0.00 0.00 33 1006.2
20260505012638 68 220 2.6 4.3 0.00 0.00 0.00 33 1006.5
20260505012134 69 229 0.0 0.0 0.00 0.00 0.00 33 1006.2
20260505011630 69 250 0.0 0.0 0.00 0.00 0.00 33 1006.2
20260505011127 69 254 0.9 0.9 0.00 0.00 0.00 33 1006.5
20260505010622 69 249 0.0 0.0 0.00 0.00 0.00 34 1006.5
20260505010119 68 191 0.9 1.7 0.00 0.00 0.00 33 1006.4
20260505005615 69 154 0.9 1.7 0.00 0.00 0.00 33 1006.7
20260505005112 69 236 0.9 1.7 0.00 0.00 0.00 33 1006.3
20260505004609 69 232 0.0 0.9 0.00 0.00 0.00 34 1006.5
20260505004106 68 235 0.9 0.9 0.00 0.00 0.00 34 1006.9
20260505003603 68 175 1.7 1.7 0.00 0.00 0.00 34 1006.4
20260505003101 67 178 1.7 2.6 0.00 0.00 0.00 34 1006.7
20260505002556 67 143 1.7 2.6 0.00 0.00 0.00 34 1006.8
20260505002055 67 101 3.5 4.3 0.00 0.00 0.00 34 1006.5
20260505001552 67 105 1.7 1.7 0.00 0.00 0.00 35 1006.8
20260505001049 67 64 2.6 4.3 0.00 0.00 0.00 35 1006.8
20260505000546 67 36 0.0 0.9 0.00 0.00 0.00 35 1006.9
20260505000044 67 84 2.6 4.3 0.00 0.00 0.00 35 1006.7
20260504235540 67 102 4.3 6.1 0.00 0.00 0.00 35 1006.9
20260504235037 66 93 1.7 4.3 0.00 0.00 0.00 37 1006.8
20260504234534 66 92 3.5 7.0 0.00 0.00 0.00 37 1006.8
20260504234031 67 70 3.5 5.2 0.00 0.00 0.00 36 1006.9
20260504233526 68 159 1.7 1.7 0.00 0.00 0.00 36 1007.0
20260504233023 67 191 2.6 2.6 0.00 0.00 0.00 36 1007.1
20260504232520 67 164 0.9 0.9 0.00 0.00 0.00 37 1007.6
20260504232018 66 170 1.7 1.7 0.00 0.00 0.00 37 1007.4
20260504231515 67 123 1.7 4.3 0.00 0.00 0.00 36 1007.4
20260504231011 67 146 4.3 7.0 0.00 0.00 0.00 36 1007.2
20260504230507 67 86 7.0 9.6 0.00 0.00 0.00 35 1007.0
20260504230006 67 92 7.0 8.7 0.00 0.00 0.00 37 1006.9
20260504225503 67 34 6.1 7.0 0.00 0.00 0.00 36 1007.0
20260504225000 68 88 3.5 6.1 0.00 0.00 0.00 34 1006.9
20260504224456 69 46 9.6 17.4 0.00 0.00 0.00 33 1006.9
20260504223953 70 32 3.5 5.2 0.00 0.00 0.00 33 1007.0
20260504223450 71 304 0.9 2.6 0.00 0.00 0.00 30 1007.0
20260504222945 69 316 1.7 2.6 0.00 0.00 0.00 30 1007.4
20260504222443 70 263 1.7 1.7 0.00 0.00 0.00 31 1007.0
20260504221940 70 240 4.3 6.1 0.00 0.00 0.00 31 1007.0
20260504221437 70 258 7.0 8.7 0.00 0.00 0.00 31 1007.1
20260504220934 69 261 2.6 4.3 0.00 0.00 0.00 31 1007.0
20260504220431 70 234 5.2 6.1 0.00 0.00 0.00 30 1007.0
20260504215928 69 254 2.6 2.6 0.00 0.00 0.00 32 1007.0
20260504215425 69 215 4.3 6.1 0.00 0.00 0.00 32 1007.5
20260504214921 68 246 7.0 7.8 0.00 0.00 0.00 33 1007.5
20260504214418 68 228 4.3 6.1 0.00 0.00 0.00 35 1007.5
20260504213914 67 242 5.2 7.8 0.00 0.00 0.00 35 1007.8
20260504213410 67 223 5.2 7.0 0.00 0.00 0.00 36 1007.2
20260504212908 66 213 7.0 11.3 0.00 0.00 0.00 38 1007.5
20260504212404 65 219 7.0 7.8 0.00 0.00 0.00 39 1007.5
20260504211902 65 231 8.7 13.0 0.00 0.00 0.00 39 1007.5
20260504211357 65 242 9.6 12.2 0.00 0.00 0.00 39 1007.6
20260504210855 66 205 8.7 9.6 0.00 0.00 0.00 39 1007.7
20260504210352 67 208 7.8 11.3 0.00 0.00 0.00 35 1007.4
20260504205849 68 239 5.2 6.1 0.00 0.00 0.00 31 1007.6
20260504205347 68 238 4.3 5.2 0.00 0.00 0.00 31 1007.7
20260504204845 68 269 2.6 2.6 0.00 0.00 0.00 32 1007.5
20260504204343 68 236 5.2 7.0 0.00 0.00 0.00 32 1007.6
20260504203842 68 222 4.3 5.2 0.00 0.00 0.00 34 1007.7
20260504203338 69 236 7.8 11.3 0.00 0.00 0.00 32 1007.6
20260504202834 69 247 4.3 6.1 0.00 0.00 0.00 32 1007.6
20260504202332 68 253 6.1 7.0 0.00 0.00 0.00 33 1007.8
20260504201828 70 213 1.7 2.6 0.00 0.00 0.00 31 1007.5
20260504201326 70 246 1.7 2.6 0.00 0.00 0.00 31 1007.6
20260504200823 70 224 0.9 0.9 0.00 0.00 0.00 32 1007.7
20260504200319 70 272 0.9 0.9 0.00 0.00 0.00 31 1007.8
20260504195815 70 233 0.0 0.0 0.00 0.00 0.00 31 1007.7
20260504195311 72 208 0.0 0.0 0.00 0.00 0.00 30 1007.9
20260504194808 71 209 0.0 0.9 0.00 0.00 0.00 30 1008.0
20260504194304 71 203 3.5 4.3 0.00 0.00 0.00 30 1007.9
20260504193801 70 194 0.0 0.9 0.00 0.00 0.00 30 1007.9
20260504193258 71 130 4.3 5.2 0.00 0.00 0.00 30 1008.0
20260504192757 71 215 1.7 1.7 0.00 0.00 0.00 30 1007.9
20260504192254 71 157 3.5 4.3 0.00 0.00 0.00 30 1007.9
20260504191753 71 183 0.9 1.7 0.00 0.00 0.00 31 1007.9
20260504191249 71 147 1.7 5.2 0.00 0.00 0.00 30 1007.9
20260504190745 71 186 0.9 1.7 0.00 0.00 0.00 30 1008.0
20260504190242 72 116 2.6 4.3 0.00 0.00 0.00 29 1008.0
20260504185738 72 178 0.0 0.0 0.00 0.00 0.00 30 1008.4
20260504185235 73 200 2.6 4.3 0.00 0.00 0.00 30 1008.5
20260504184731 73 234 2.6 4.3 0.00 0.00 0.00 29 1008.5
20260504184227 72 232 1.7 4.3 0.00 0.00 0.00 30 1008.5
20260504183723 71 131 5.2 6.1 0.00 0.00 0.00 30 1008.6
20260504183220 72 108 7.0 8.7 0.00 0.00 0.00 29 1008.5
20260504182718 71 165 2.6 4.3 0.00 0.00 0.00 31 1008.3
20260504182215 71 131 3.5 6.1 0.00 0.00 0.00 31 1008.9
20260504181713 71 153 4.3 6.1 0.00 0.00 0.00 32 1008.9
20260504181210 69 151 5.2 7.0 0.00 0.00 0.00 33 1008.7
20260504180709 71 150 6.1 7.8 0.00 0.00 0.00 32 1008.7
20260504180207 69 201 4.3 5.2 0.00 0.00 0.00 33 1009.0
20260504175704 70 122 4.3 9.6 0.00 0.00 0.00 33 1009.0
20260504175201 71 80 6.1 7.0 0.00 0.00 0.00 33 1008.9
20260504174659 71 156 2.6 6.1 0.00 0.00 0.00 33 1009.0
20260504174156 72 87 1.7 2.6 0.00 0.00 0.00 32 1009.1
20260504173652 71 158 4.3 6.1 0.00 0.00 0.00 32 1009.1
20260504173150 72 143 9.6 12.2 0.00 0.00 0.00 32 1009.0
20260504172646 71 138 6.1 7.8 0.00 0.00 0.00 33 1009.2
20260504172143 70 151 6.1 7.8 0.00 0.00 0.00 33 1009.2
20260504171639 69 138 4.3 7.0 0.00 0.00 0.00 34 1009.3
20260504171137 70 102 7.0 11.3 0.00 0.00 0.00 33 1009.4
20260504170633 70 141 7.8 9.6 0.00 0.00 0.00 33 1009.2
20260504170131 70 151 6.1 9.6 0.00 0.00 0.00 33 1009.2
20260504151016 64 124 0.9 1.7 0.00 0.00 0.00 46 1009.8
20260504150514 63 166 6.1 8.7 0.00 0.00 0.00 46 1009.9